Probability
0 0 0 0 0 0 0 0 0 0 0 0 0 0 0 0 0 1 1 1 5 10 13 15 18 23 33 48 65 78 85 83 77 70 57 41 24 12 5 4 4 3 3 4
0 0 0 0 0 0 0 0 0 0 0 0 0 0 0 0 1 2 2 2 4 6 8 10 14 20 30 45 63 77 84 83 76 66 50 31 17 8 4 3 3 2 2 3
0 0 0 0 0 0 0 0 0 0 0 0 0 0 0 0 1 2 2 2 3 4 5 7 11 16 24 38 57 72 78 75 66 53 36 20 10 6 3 2 1 0 0 1
0 0 0 0 0 0 0 0 0 0 0 0 0 0 0 0 1 2 2 2 4 6 8 10 13 16 22 35 50 61 64 60 50 38 27 16 9 5 3 1 0 0 0 0
0 0 0 0 0 0 0 0 0 0 0 0 0 0 0 1 3 5 7 8 11 15 18 20 23 24 27 36 45 48 48 45 38 30 22 14 8 5 2 2 1 0 0 0
0 0 0 0 0 0 0 0 0 0 0 0 0 0 1 2 6 10 14 18 22 27 32 35 37 36 35 37 38 37 35 32 28 23 15 9 6 4 3 2 1 0 0 0
0 0 0 0 0 0 0 0 0 0 0 0 0 0 2 7 10 14 19 22 27 33 37 40 41 39 35 32 29 28 25 21 17 12 8 6 4 3 3 1 1 0 0 0
0 0 0 0 0 0 0 0 0 0 0 0 0 1 4 10 13 15 19 22 25 28 31 32 29 26 23 20 19 18 16 12 8 6 5 4 3 3 2 1 0 0 0 0
0 0 0 0 0 0 0 0 0 0 0 0 0 1 4 9 13 16 19 20 20 21 23 21 16 12 10 10 10 10 8 6 5 4 4 3 2 1 1 0 0 0 0 0
0 0 0 0 0 0 0 0 0 0 0 0 0 0 2 6 13 19 21 19 17 17 16 13 9 6 4 4 4 4 3 3 3 3 3 1 1 0 0 0 0 0 0 0
0 0 0 0 0 0 0 0 0 0 0 0 0 0 1 6 16 24 24 19 16 14 11 7 5 3 1 1 2 1 1 1 1 1 1 0 0 0 0 0 0 0 0 0
0 0 0 0 0 0 0 0 0 0 0 0 0 1 4 12 22 26 24 18 13 10 6 3 1 1 0 0 0 0 0 0 0 0 0 0 0 0 0 0 0 0 0 0
0 0 0 0 0 0 0 0 0 0 0 0 0 2 9 20 26 25 18 14 10 7 3 1 0 0 0 0 0 0 0 0 0 0 0 0 0 0 0 0 0 0 0 0
0 0 0 0 0 0 0 0 0 0 0 0 0 4 12 20 22 18 11 8 6 3 1 0 0 0 0 0 0 0 0 0 0 0 0 0 0 0 0 0 0 0 0 0
0 0 0 0 0 0 0 0 0 0 0 0 1 5 10 14 13 9 5 3 2 1 0 0 0 0 0 0 0 0 0 0 0 0 0 0 0 0 0 0 0 0 0 0
0 0 0 0 0 0 0 0 0 0 0 0 1 4 8 9 7 4 2 1 0 0 0 0 0 0 0 0 0 0 0 0 0 0 0 0 0 0 0 0 0 0 0 0
0 0 0 0 0 0 0 0 0 1 2 1 2 4 6 6 4 1 1 0 0 0 0 0 0 0 0 0 0 0 0 0 0 0 0 0 0 0 0 0 0 0 0 0
0 0 0 0 0 0 0 0 0 1 2 2 2 2 3 2 1 0 0 0 0 0 0 0 0 0 0 0 0 0 0 0 0 0 0 0 0 0 0 0 0 0 0 0
0 0 0 0 0 0 0 0 0 1 1 1 1 1 1 0 0 0 0 0 0 0 0 0 0 0 0 0 0 0 0 0 0 0 0 0 0 0 0 0 0 0 0 0
0 0 0 0 0 0 0 0 0 0 0 0 0 0 0 0 0 0 0 0 0 0 0 0 0 0 0 0 0 0 0 0 0 0 0 0 0 0 0 0 0 0 0 0
0 0 0 0 0 0 0 0 0 0 0 0 0 0 0 0 0 0 0 0 0 0 0 0 0 0 0 0 0 0 0 0 0 0 0 0 0 0 0 0 0 0 0 0
0 0 0 0 0 0 0 0 0 0 0 0 0 0 0 0 0 0 0 0 0 0 0 0 0 0 0 0 0 0 0 0 0 0 0 0 0 0 0 0 0 0 0 0
0 0 0 0 0 0 0 0 0 0 0 0 0 0 0 0 0 0 0 0 0 0 0 0 0 0 0 0 0 0 0 0 0 0 0 0 0 0 0 0 0 0 0 0
0 0 0 0 0 0 0 0 0 0 0 0 0 0 0 0 0 0 0 0 0 0 0 0 0 0 0 0 0 0 0 0 0 0 0 0 0 0 0 0 0 0 0 0
0 0 0 0 0 0 0 0 0 0 0 0 0 0 0 0 0 0 0 0 0 0 0 0 0 0 0 0 0 0 0 0 0 0 0 0 0 0 0 0 0 0 0 0
0 0 0 0 0 0 0 0 0 0 0 0 0 0 0 0 0 0 0 0 0 0 0 0 0 0 0 0 0 0 0 0 0 0 0 0 0 0 0 0 0 0 0 0
Wind_Speed
5 5 5 8 9 6 3 2 3 6 4 2 5 7 10 5 4 7 8 10 13 17 17 11 11 10 9 9 11 11 10 9 8 7 6 5 4 3 3 2 3 4 5 6
4 4 9 7 5 4 3 3 5 7 2 1 5 8 9 5 5 7 9 11 14 15 11 9 10 9 10 10 10 10 10 9 9 6 5 4 5 3 2 3 3 4 5 6
8 6 6 6 5 5 4 5 5 6 6 4 3 8 8 6 3 5 6 8 9 12 13 10 9 9 8 8 9 8 8 8 8 9 7 7 5 3 2 2 2 3 4 5
6 6 4 5 5 7 5 7 6 3 2 5 2 4 9 7 7 6 6 5 6 7 7 6 5 5 5 5 6 7 8 9 10 9 8 8 6 4 3 2 2 3 5 6
7 6 7 7 8 9 8 4 4 3 3 2 2 3 10 6 7 9 8 7 4 2 1 1 3 4 4 5 7 9 11 10 10 9 8 6 5 4 4 4 5 4 4 5
6 4 7 9 7 8 5 4 5 5 4 2 5 5 7 4 5 9 8 8 6 5 6 6 7 8 8 8 9 10 11 10 9 9 8 7 7 7 8 6 6 4 4 4
3 4 4 4 2 1 4 5 4 4 3 6 3 3 6 3 5 5 7 8 8 8 9 10 10 10 10 10 10 10 11 10 8 9 8 7 8 7 7 6 6 5 4 3
4 7 5 6 8 7 6 10 8 5 5 5 1 4 3 3 5 7 8 9 11 12 12 13 12 12 11 11 10 10 10 9 8 9 8 8 8 6 5 6 5 5 4 4
6 7 5 5 6 10 7 7 8 7 3 1 4 3 1 5 7 8 9 11 12 12 13 13 13 13 13 12 11 11 11 10 10 10 9 9 8 8 7 7 6 5 5 5
7 5 5 3 3 2 5 8 6 7 8 4 4 2 2 2 4 6 8 10 11 11 12 13 13 13 13 12 12 12 12 11 11 10 8 8 9 9 8 8 7 7 6 6
4 4 5 3 1 2 3 4 4 4 5 8 5 5 1 0 1 4 7 9 10 11 11 11 11 12 12 11 11 11 11 11 11 10 10 10 9 9 9 8 8 7 6 6
1 4 3 4 2 0 4 4 7 5 4 4 5 3 3 2 3 6 8 9 10 11 11 11 11 11 11 11 11 11 10 10 10 10 11 11 10 10 10 10 8 8 8 7
2 4 2 4 4 6 4 2 3 5 5 3 4 2 3 5 7 8 9 9 9 10 10 10 10 10 10 10 10 10 10 10 10 10 11 11 10 10 10 9 8 8 8 7
3 4 3 4 2 1 2 2 2 4 4 3 2 5 3 5 6 7 8 8 8 9 9 9 9 9 9 9 9 10 10 9 10 10 11 11 10 9 9 9 8 8 7 7
5 3 2 2 3 2 3 4 2 3 5 5 6 6 5 4 5 6 7 8 9 9 8 8 8 8 8 9 9 9 9 9 9 10 11 10 8 8 8 8 7 7 7 7
5 2 3 3 4 3 3 7 5 2 2 6 8 5 5 7 7 7 7 7 8 8 8 8 8 8 8 8 8 8 8 8 8 10 9 8 8 8 7 7 7 6 6 5
3 2 2 2 4 3 3 5 3 3 2 3 5 5 9 8 8 7 6 7 8 8 8 8 7 7 7 7 7 8 7 7 8 8 8 7 7 7 6 6 6 6 5 4
2 2 2 1 1 3 3 2 4 5 5 4 8 10 9 10 8 8 7 7 8 7 7 7 7 7 7 7 7 7 7 7 8 7 6 6 6 6 6 6 5 4 3 3
2 4 3 2 2 1 1 1 1 1 3 3 8 10 10 10 7 6 7 8 8 7 7 7 7 7 7 7 6 7 7 6 6 6 5 5 5 5 5 5 4 3 3 3
4 3 4 3 3 5 3 2 3 3 1 2 5 8 9 6 3 3 5 8 9 8 7 7 7 7 7 6 6 7 6 5 5 5 4 4 4 4 4 4 3 3 3 3
5 5 3 2 2 3 2 6 2 2 4 3 4 6 6 2 3 8 9 8 8 8 7 7 7 6 5 5 5 6 5 4 3 4 4 4 4 4 4 3 3 3 3 4
1 1 1 1 1 3 5 5 1 1 1 3 3 4 7 9 11 10 9 9 8 8 7 6 6 5 4 4 5 5 3 2 3 3 4 3 3 3 3 4 3 4 4 4
1 2 2 2 3 1 3 2 2 1 2 2 4 6 11 11 10 10 9 8 7 7 6 5 5 4 4 3 3 3 1 1 3 3 3 3 3 3 3 3 3 2 3 2
2 1 2 1 1 0 2 2 3 3 2 3 5 9 10 11 11 10 9 7 6 5 5 4 4 4 3 2 2 1 0 1 3 2 2 1 2 2 2 2 1 1 1 1
3 0 1 2 2 0 1 2 3 4 6 7 7 8 10 12 12 10 8 7 5 4 3 3 3 3 2 2 2 1 1 2 2 2 1 1 1 1 1 1 0 0 1 2
3 4 4 4 4 4 2 2 3 6 6 8 10 10 10 10 11 9 7 5 4 4 3 3 3 2 2 2 2 2 1 2 3 1 0 0 0 0 0 1 2 2 2 3
Wind_Direction
131 111 185 202 193 194 199 221 271 268 277 304 291 287 289 289 241 243 238 228 224 225 227 218 214 208 197 192 191 193 187 177 167 166 158 146 137 117 92 87 121 132 134 133
85 220 216 198 184 187 206 254 280 291 318 272 294 290 283 272 246 235 232 233 231 235 234 221 214 207 202 198 193 190 185 172 167 158 137 114 105 92 100 114 108 119 131 132
174 222 195 168 175 185 209 211 240 266 329 344 299 309 305 302 290 285 263 247 243 235 231 222 209 207 201 197 191 183 172 154 143 129 117 109 94 82 77 84 91 97 112 115
205 229 169 171 198 178 241 227 216 242 338 301 16 301 295 304 320 311 304 292 263 250 240 229 207 194 188 185 161 145 136 132 130 129 135 140 145 154 163 144 130 114 110 113
219 196 180 200 214 181 216 220 201 215 192 271 291 193 281 325 319 318 332 338 318 296 236 148 123 132 127 125 118 118 117 117 119 122 128 132 132 129 118 120 125 116 104 106
224 211 187 204 216 193 189 69 48 51 89 239 237 177 273 304 313 320 342 358 15 42 67 77 80 86 86 89 97 107 112 112 114 116 122 130 136 137 138 142 137 120 105 99
278 271 230 183 164 144 130 102 23 358 27 243 245 175 247 320 352 353 7 23 38 57 66 70 74 80 82 85 91 99 106 108 110 113 116 124 129 134 140 142 136 132 123 114
213 272 238 194 187 192 177 148 161 195 212 260 287 212 246 41 36 46 53 51 55 62 66 67 69 73 77 77 80 87 93 92 90 92 95 100 108 115 121 124 128 130 124 115
191 248 269 226 196 166 161 188 176 149 169 226 271 268 310 47 41 51 56 57 60 62 65 67 65 63 64 65 63 69 78 77 77 83 91 94 99 103 105 105 105 103 101 106
175 237 279 275 102 122 154 148 109 134 155 208 257 248 252 346 21 47 60 62 64 64 64 63 61 61 60 62 64 65 71 75 73 74 79 86 86 90 95 96 96 94 92 96
162 198 290 3 126 186 113 119 124 133 160 162 208 251 351 226 56 71 74 70 67 66 63 64 63 63 65 64 64 66 69 72 72 75 79 80 79 82 84 83 83 87 87 89
48 143 245 259 281 331 134 148 145 153 204 181 173 222 18 77 84 88 86 77 72 68 64 63 63 63 63 64 65 66 68 73 75 78 79 78 77 78 79 79 77 80 79 77
23 92 63 2 355 10 51 55 119 120 111 137 155 194 60 74 76 74 81 77 73 71 66 63 61 61 63 65 66 66 66 70 71 75 78 77 75 76 76 75 74 75 77 77
90 76 136 181 218 316 16 12 105 112 120 146 168 142 109 83 81 75 76 78 74 70 68 67 64 63 64 66 69 71 69 70 75 76 76 74 73 75 76 75 74 74 77 79
55 62 33 22 6 38 35 1 6 114 155 149 155 147 144 117 98 85 81 84 79 72 70 70 69 69 70 71 71 73 73 72 78 81 79 78 76 75 75 74 73 73 74 78
32 56 29 3 15 42 36 7 5 59 111 134 140 145 131 116 102 90 84 85 82 75 74 74 73 71 72 74 76 78 77 76 80 83 81 80 79 78 76 75 73 73 72 71
354 60 72 299 329 26 343 341 357 39 8 162 172 151 133 115 98 82 76 81 81 77 75 74 74 72 73 75 78 81 79 78 78 79 78 76 78 74 68 74 72 69 65 64
176 105 124 175 68 224 241 35 70 80 39 59 106 119 119 111 93 73 71 84 81 78 77 77 80 81 79 79 77 78 78 78 79 78 76 76 78 76 70 67 65 60 57 55
167 147 127 127 152 234 222 318 347 97 52 57 119 121 116 117 97 67 61 77 83 83 85 84 83 85 83 78 78 80 74 73 75 75 74 75 79 78 70 63 55 47 54 47
44 77 115 132 160 218 226 341 341 112 161 180 140 143 144 143 132 126 97 89 88 85 86 87 86 83 79 72 75 77 71 69 68 70 74 74 76 78 73 64 55 45 53 46
7 22 66 135 195 263 344 314 331 177 234 168 151 151 149 126 104 117 108 96 93 91 89 88 85 79 74 73 77 76 70 63 57 66 73 72 71 80 79 69 58 59 59 48
340 17 13 117 190 256 344 355 94 222 19 86 115 120 113 107 109 110 109 106 101 96 90 87 86 76 61 64 79 78 66 53 66 74 78 74 66 74 88 83 67 57 54 45
236 199 204 203 221 293 353 13 356 38 77 85 113 124 126 125 122 118 112 107 101 98 92 84 87 73 52 50 83 89 52 76 84 81 76 74 72 66 79 89 80 58 47 40
299 130 142 229 243 300 16 26 25 37 75 101 119 127 128 127 125 119 115 110 106 98 91 86 84 75 48 32 57 113 138 127 116 108 91 84 83 66 60 69 82 78 40 20
261 161 138 253 246 203 37 55 67 77 90 99 104 112 125 126 124 121 119 116 110 100 86 87 91 78 46 36 42 33 94 123 124 131 128 106 94 83 44 26 304 252 246 238
224 188 185 233 219 185 177 128 108 101 101 113 115 108 112 119 120 119 116 115 113 106 98 95 90 82 52 43 27 15 59 122 133 144 150 113 115 87 37 0 347 331 315 318